Location: Unspecified
(0.0000°N, 0.0000°E)
Time: 21:06:40
(UTC+00:00)

CZ-3C DEB - Visible Passes

Search period start: 12 January 2025 00:00
Search period end: 22 January 2025 00:00
Orbit: 669 x 35486 km, 19.9° (Epoch: 06 January)

Date Brightness Start Highest point End Pass type
(mag) Time Alt. Az. Time Alt. Az. Time Alt. Az.
13 Jan ? 03:48:37 17° SW 04:00:32 72° SSE 13:44:15 10° E visible
14 Jan ? 00:57:33 21° SE 00:57:33 21° SE 01:08:54 10° E visible
14 Jan ? 05:27:39 10° ENE 08:43:39 25° ENE 10:14:02 10° ENE visible
15 Jan ? 09:06:53 10° W 18:48:02 63° SSW 18:54:54 10° SE visible
17 Jan ? 02:58:55 38° SW 03:05:12 63° SSE 12:48:37 10° E visible
18 Jan ? 06:16:26 10° ENE 07:51:54 15° ENE 08:53:25 10° ENE visible
18 Jan ? 20:51:10 10° WSW 20:56:24 16° SSW 20:58:08 14° S visible
20 Jan ? 05:01:54 10° WSW 05:27:20 85° NNW 15:02:15 10° E visible
21 Jan ? 02:09:17 50° SSE 02:10:50 52° SSE 11:51:31 10° E visible
